Location: LDNL
(36.4545°S, 141.6685°E)
Time: 12:14:02
(UTC+10:00)

Vanguard 3 - Pass Details

Date: 31 January 2022
Orbit: 508 x 3258 km, 33.3° (Epoch: 25 May)

Event Time Altitude Azimuth Distance (km) Brightness Sun altitude
Rises 21:48:14 0° 346° (NNW) 2,928 9.8 -12.2°
Reaches altitude 10° 21:51:17 10° 12° (NNE) 2,298 9.1 -12.7°
Enters shadow 21:52:36 13° 26° (NNE) 2,212 8.9 -12.9°
Maximum altitude 21:54:11 15° 45° (NE) 2,287 - -13.2°
Drops below altitude 10° 21:57:49 10° 76° (ENE) 3,024 - -13.8°
Sets 22:02:58 0° 96° (E) 4,611 - -14.7°
